Simultaneous Nadir Overpasses (SNOs) Predictions

Prediction of SNOs between LANDSAT-8 and METOP-B Satellite Orbit:

Table of predicted SNOs for the next 14.0 days since TLE Epoch: 1/29/2022
Index Date (LANDSAT-8) Time (LANDSAT-8) Lat,Lon (LANDSAT-8) SZA (LANDSAT-8 ) Date (METOP-B) Time (METOP-B) Lat,Lon (METOP-B) SZA (METOP-B ) Distance(km) Time Diff (sec)
1 01/31/2022 10:43:08 81.14, 59.13 100.10 01/31/2022 10:42:04 81.14, 59.29 100.09 2.80 64
2 01/31/2022 11:32:34 -81.15,-132.95 79.88 01/31/2022 11:32:44 -81.15,-132.99 79.88 0.76 10
3 02/03/2022 06:17:23 81.14, 125.64 99.29 02/03/2022 06:16:27 81.13, 125.47 99.25 2.96 56
4 02/03/2022 07:06:49 -81.16, -66.42 80.68 02/03/2022 07:07:06 -81.16, -66.39 80.67 0.45 17
5 02/06/2022 01:51:38 81.14,-167.91 98.45 02/06/2022 01:50:49 81.14,-167.97 98.42 1.13 49
6 02/06/2022 02:41:04 -81.16, 0.06 81.52 02/06/2022 02:41:28 -81.17, 0.21 81.50 2.52 24
7 02/08/2022 21:25:52 81.14,-101.50 97.56 02/08/2022 21:25:10 81.14,-101.41 97.56 1.66 42
8 02/08/2022 22:15:18 -81.16, 66.49 82.41 02/08/2022 22:15:50 -81.16, 66.43 82.40 1.08 32
9 02/11/2022 17:00:07 81.13, -35.15 96.63 02/11/2022 16:59:33 81.14, -35.23 96.62 1.39 34



Historial Predications of SNOs between LANDSAT-8 and METOP-B
